Aérodrome :
LOGIN :

S'inscrire | Disclaimer

   EN    FR    IT 

 










Légende :    VFR   VFR Marginal   IFR   IFR Intensif   IFR Très Intensif
Visi : 
Plafond : 
>= 8 km
>= 3000ft
5 à 8 km
1000 à 3000 ft
1500m à 5 km
500 à 1000 ft
800 à 1500m
200 à 500 ft
< 800m
< 200 ft
Symboles :   Orages  Brouillard  Fortes neiges  Fortes précipitations  Vent > 20 kt
SIGMETs :   Divers  Orages  Givrage  Turbulence  Onde Orograph.  Cendres Volcan.







- Altitude de l'aérodrome : 1548 ft


LKNA - Náměšť Air Base

DERNIER METAR :
  • 181800Z 11005KT 8000 NSC 05/01 Q1020 NOSIG RMK BLU BLU

METARs EXPIRÉS :
  • 181700Z 11006KT 7000 NSC 05/01 Q1020 NOSIG RMK WHT WHT
  • 181600Z 11005KT 8000 NSC 07/02 Q1020 NOSIG RMK BLU BLU

TAF TAF LKNA
Valide du 18 à 18h jusqu'au 19 à 18h UTC


181700Z 1818/1918 13005KT 6000 NSC
BECMG 1818/1820 VRB02KT 4000 BR
TEMPO 1821/1909 0400 FZFG VV002
BECMG 1911/1913 30008KT CAVOK
Pas de NOTAMs connus pour ce terrain.



MET'MAP, la Météo Aéronautique d'un coup d'oeil ! - Copyright ORBIFLY Décembre 2007 - Disclaimer

ORBIFLY MET'MAP TEAM :

Programmation & Développement : Alexandra Zaïnal
Conception & Développement : Baudouin d'Aumeries
Co-Programmation & Développement : Marc-Olivier Méhu
Soutien technique & logistique : Manuel Goepfert

Contact : metmap@orbifly.com




SOURCES & CREDITS :

   NOAA